カタログに戻る

STARLINK-34320

運用中通信VLEO
NORAD 64217·PAYLOAD·🇺🇸 United States

打ち上げ May 31, 2025 から Vandenberg Space Force Base

Loading…

次のパス (今後24時間)

TLE

最新Source: CelesTrak SupGP

元期: Sep 14, 2026, 21:32 UTC

1 64217C 25117Q   26257.89770833  .00038018  00000+0  11233-2 0  2571
2 64217  53.1578 237.6827 0001403  96.3689  46.7662 15.34369617    12

AllMySatでSTARLINK-34320をリアルタイム追跡

Download on the App Store